Showing default

MKA-FKI 1, 38711

Orbit data source: Space-Track

MKA-FKI 1, 38711 is a Commonwealth of Independent States-origin payload satellite in SSO that was launched on Sun, 22 Jul 2012 UTC via a SOYUZ-FG launch vehicle from the Tyuratam Missile And Space Complex (TTMTR). Payload-class satellites include a variety of spacecraft equipped with specific instruments for various scientific and technological missions. These include communications satellites like Starlink; space stations such as the ISS; scientific satellites like the Hubble; Earth observation satellites from companies like Planet Labs, Umbra, and HawkEye 360; GPS; miniature CubeSats for education and research; and military/defense satellites.

Loading next visibility...
Identifier
38711, 2012-039E
Orbit
SSO
Country
Flag of CISCIS
Related business
Manufacturer
Lavochkin
Mission
Operational Civil Science
Bus & Motor
KARAT, Unknown motor
Mass
110 kg wet, 110 kg dry
Launch date (UTC)
2012-07-22 (14 years ago)
Launch vehicle
SOYUZ-FG
Launch site
Tyuratam Missile And Space Complex (TTMTR)
Object type
Payload
Rocket body
Debris
Shape & HBR
Box + 3 Pan, 0.9 m
Radar Cross Section
1.500 m², Large (>1 m²)

Expand to show TLE details & history
Last TLE update: 5 hours ago

TLE from 5 hours ago
0 MKA-FKI 1
1 38711U 12039E   26265.26472586  .00000078  00000-0  52840-4 0  9994
2 38711  98.9821  24.5512 0010521 246.2544 113.7532 14.25454591736675
Epoch: 2026-09-22T06:21Z
TLE epoch observation values (Epoch: 2026-09-22T06:21:12.314Z)
Latitude
0.00004°
Longitude
-71.88281°
Altitude
812.93 km
Speed
7.445 km/s
True Right ascension
01h 38m 12s
True Declination
0° 00' 00"
Sunlit
Object was in full shadow at epoch
Visualization orbit readout
Latitude
Unknown
Longitude
Unknown
Altitude
Unknown
Speed
Unknown
Apparent Right ascension
Unknown
Apparent Declination
Unknown
Sunlit
N/A
Visualization observer readout
Local Sidereal Time
04:29:16
Azimuth
Unknown
Elevation
Unknown
Doppler factor
Unknown
Orbital elements
Apogee altitude
811.686 km
Perigee altitude
796.573 km
Semi-major axis
7,182.266 km
Eccentricity
0.00105
Inclination
98.9821°
RAAN
24.5512°
Arg. of periapsis
246.2544°
True anomaly
113.86349°
Mean anomaly
113.7532°
Eccentric anomaly
113.80835°
Mean motion
3.56575 °/min
Orbital period
100.96 mins
BSTAR
0.00005284
Loading maneuver chart data...
Computing Atmospheric mass density...
Loading historical data...
Loading historical data...
Loading historical data...
Loading historical data...
Loading historical data...
Loading historical data...
Loading historical data...

Documentation

Showing up to 5 results
|